Regional Weather Roundup
Issued by NWS

Home | Current Version | Previous Version | Text Only | Print | Product List | Glossary Off
Versions: 1 2 3 4 5 6 7 8 9 10 11 12 13 14 15 16 17 18 19 20 21 22 23 24 25 26 27 28 29 30 31 32 33 34 35 36 37 38 39 40 41 42 43 44 45 46 47 48 49 50

000
ASUS43 KLSX 180557
RWRMO

WEATHER SUMMARY FOR MISSOURI
NATIONAL WEATHER SERVICE SPRINGFIELD MO
1200 AM CST THU JAN 18 2018

NOTE: "FAIR" INDICATES FEW OR NO CLOUDS BELOW 12,000 FEET WITH NO
       SIGNIFICANT WEATHER AND/OR OBSTRUCTIONS TO VISIBILITY.
       CURRENT SKY AND/OR WEATHER CONDITIONS ARE NOT AVAILABLE FOR
       CHILLICOTHE AND FARMINGTON.

MOZ001>031-035>038-043-044-053-054-180700-
...NORTHERN AND WESTERN MISSOURI...

CITY           SKY/WX    TMP DP  RH WIND       PRES   REMARKS
KANSAS CTY INT CLOUDY    17   9  70 SW13      30.38F WCI   4
6HR MIN TEMP:  16; 6HR MAX TEMP:  19;

LEE`S SUMMIT   CLOUDY    16  10  77 SW14      30.40F WCI   2
6HR MIN TEMP:  15; 6HR MAX TEMP:  20;

ST JOSEPH      CLOUDY    16  12  84 S8        30.38F WCI   5
6HR MIN TEMP:  13; 6HR MAX TEMP:  22;

CHILLICOTHE      N/A     14   8  77 S7        30.40F WCI   4
6HR MIN TEMP:  14; 6HR MAX TEMP:  21;


$$
MOZ066>068-077>081-088>096-101>105-180700-
...SOUTHWEST MISSOURI...

CITY           SKY/WX    TMP DP  RH WIND       PRES   REMARKS
SPRINGFIELD    CLOUDY    14   6  70 S12       30.45F WCI   0
6HR MIN TEMP:   4; 6HR MAX TEMP:  18;

JOPLIN         CLOUDY    16   7  67 S9        30.49F WCI   4
6HR MIN TEMP:  12; 6HR MAX TEMP:  20;


$$
MOZ032>034-039>042-045>050-055>058-069>072-180700-
...CENTRAL MISSOURI...

CITY           SKY/WX    TMP DP  RH WIND       PRES   REMARKS
COLUMBIA       NOT AVBL
JEFFERSON CITY CLOUDY    16   8  71 CALM      30.48F
6HR MIN TEMP:  16; 6HR MAX TEMP:  23;

ROLLA          CLEAR     15   7  70 SW12      30.45F WCI   2
6HR MIN TEMP:  13; 6HR MAX TEMP:  17;

SEDALIA        CLOUDY    17  10  74 SW12      30.44F WCI   4
6HR MIN TEMP:  16; 6HR MAX TEMP:  20;

WARRENSBURG    CLOUDY    14   9  79 S7        30.44F WCI   4

$$
MOZ051-052-059>065-180700-
...EAST CENTRAL MISSOURI...

CITY           SKY/WX    TMP DP  RH WIND       PRES   REMARKS
ST LOUIS INTL  CLOUDY    20   9  62 W7        30.46F WCI  11
6HR MIN TEMP:  18; 6HR MAX TEMP:  22;


$$
MOZ072>076-082>087-097>100-106>115-180700-
...SOUTH CENTRAL AND SOUTHEAST MISSOURI...

CITY           SKY/WX    TMP DP  RH WIND       PRES   REMARKS
CAPE GIRARDEAU FAIR      11   7  84 S5        30.55F WCI   3
6HR MIN TEMP:   9; 6HR MAX TEMP:  12;

POPLAR BLUFF   FAIR       8   5  87 S5        30.56F WCI   0
6HR MIN TEMP:   8; 6HR MAX TEMP:  16;

WEST PLAINS    CLOUDY    13   5  70 SW3       30.48F
6HR MIN TEMP:  12; 6HR MAX TEMP:  20;


$$


USA.gov is the U.S. government's official web portal to all federal, state and local government web resources and services.